SCP
0 0 0 0 0 0 0 0 0 0 0 0 0 0 0 0 0 0 0 0 0 0 0 0 0 0 0 0 0 0 0 0
0 0 0 0 0 0 0 0 0 0 0 0 0 0 0 0 0 0 0 0 0 0 0 0 0 0 0 0 0 0 0 0
0 0 0 0 0 0 0 0 0 0 0 0 0 0 0 0 0 0 0 0 0 0 0 0 0 0 0 0 0 0 0 0
0 0 0 0 0 0 0 0 0 0 0 0 0 0 0 0 0 0 0 0 0 0 0 0 0 0 0 0 0 0 0 0
0 0 0 0 0 0 0 0 0 0 0 0 0 0 0 0 0 0 0 0 0 0 0 0 0 0 0 0 0 0 0 0
0 0 0 0 0 0 0 0 0 0 0 0 0 0 0 0 0 0 0 0 0 0 0 0 0 0 0 0 0 0 0 0
0 0 0 0 0 0 0 0 0 0 0 0 0 0 0 0 0 0 0 0 0 0 0 0 0 0 0 0 0 0 0 0
0 0 0 0 0 0 0 0 0 0 0 0 0 0 0 0 0 0 0 0 0 0 0 0 0 0 0 0 0 0 0 0
0 -0 -0 0 0 0 0 0 0 0 0 0 0 0 0 0 0 0 0 0 0 0 0 0 0 0 0 0 0 0 0 0
0 -0 -0 -0 0 0 0 0 0 0 0 0 0 0 0 0 0 0 0 0 0 0 0 0 0 0 0 0 0 0 0 0
-0 -0 -0 -0 -0 -0 -0 -0 0 0 0 0 0 0 0 0 0 0 0 0 0 0 0 0 0 0 0 0 0 0 0 0
-0 -0 -0 -0 -0 -0 -0 -0 0 0 0 0 0 0 0 0 0 0 0 0 0 0 0 0 0 0 0 0 0 0 0 0
-0 -0 -0 -0 -0 -0 -0 -0 -0 -0 0 0 0 0 0 0 0 0 0 0 0 0 0 0 0 0 0 0 0 0 0 0
-0 -0 -0 -0 -0 -0 0 -0 0 0 0 0 0 0 0 0 0 0 0 0 0 0 0 0 0 0 0 0 0 0 0 -0
-0 -0 -0 -0 -0 -0 -0 0 0 0 0 0 0 0 0 0 0 0 0 0 0 0 0 -0 0 0 0 0 0 0 0 0
0 0 0 0 0 0 0 -0 0 0 0 0 0 0 -0 -0 -0 -0 -0 -0 -0 -0 -0 -0 -0 0 0 0 0 -0 -0 -0
0 0 0 0 0 0 0 0 0 0 0 0 0 0 0 0 0 0 0 0 0 0 0 0 0 0 0 0 0 -0 -0 -0
0 0 0 0 0 0 0 0 0 0 0 0 0 0 0 0 0 0 0 0 0 0 0 0 0 0 0 0 -0 -0 -0 -0
0 0 0 0 0 0 0 0 0 0 0 0 0 0 0 0 0 0 0 0 0 0 0 0 0 0 0 0 -0 -0 -0 -0
0 0 0 0 0 0 0 0 0 0 0 0 -0 0 0 0 0 0 0 0 0 0 0 0 -0 0 0 0 -0 -0 0 0
Wind_Speed_500mb
50 56 48 29 40 48 66 60 45 49 51 61 53 58 67 75 77 78 91 87 83 90 72 73 72 81 82 81 78 72 66 60
42 42 37 30 35 46 50 47 41 40 44 52 59 59 63 67 73 77 85 83 86 73 56 65 73 75 65 59 57 45 39 33
46 45 38 29 25 27 29 28 25 28 41 44 49 51 55 60 66 72 65 59 54 44 49 60 58 50 42 30 28 31 35 28
69 62 45 42 36 29 25 19 20 19 24 29 31 27 26 24 26 26 24 21 22 21 24 23 20 12 11 13 14 17 18 12
92 81 70 64 53 45 39 32 24 13 12 14 17 19 21 24 25 25 21 19 16 15 15 10 4 6 12 15 16 16 19 21
92 91 82 76 68 64 60 54 49 48 44 50 48 47 45 44 42 42 41 41 38 34 32 28 21 16 9 9 11 14 17 19
96 96 98 92 86 82 81 79 75 75 72 65 59 56 55 51 50 47 44 41 36 33 29 25 22 17 16 17 18 18 18 18
101 102 98 93 86 90 81 76 79 77 69 62 56 55 52 48 47 45 44 40 38 34 32 33 32 26 23 23 24 26 27 28
97 93 91 88 82 77 74 75 72 70 64 58 53 52 48 46 48 45 42 40 38 37 37 36 41 38 32 31 30 30 31 35
93 88 85 87 80 76 77 75 71 69 64 57 52 50 46 45 44 45 42 42 44 44 40 44 47 47 44 38 40 41 43 45
86 84 80 77 73 75 77 76 77 69 66 59 56 54 53 50 49 47 44 44 42 43 45 44 45 47 50 49 46 46 49 51
82 88 86 78 75 81 76 78 67 60 57 56 55 54 51 48 47 45 42 40 42 42 43 45 48 52 52 52 54 56 56 58
81 81 75 72 70 75 77 64 56 53 53 54 54 52 49 47 49 49 47 48 49 48 48 49 48 47 47 49 53 56 59 63
74 74 71 68 66 69 64 53 51 50 54 53 51 51 51 50 50 49 50 51 52 51 51 50 50 50 51 53 58 61 63 66
65 68 68 64 62 62 55 49 47 51 54 53 52 52 51 52 53 52 54 53 52 52 51 51 52 56 60 64 68 69 69 72
59 59 60 56 56 53 49 46 48 53 55 55 54 55 54 54 54 53 51 49 49 52 52 53 55 58 61 61 70 75 75 78
54 53 54 53 56 54 49 46 47 51 52 51 50 49 47 45 44 44 44 44 47 48 52 54 50 57 67 70 76 80 81 82
46 46 46 47 51 50 45 42 43 47 46 44 43 43 44 44 43 43 44 47 48 52 55 60 63 67 74 80 85 86 90 93
41 41 42 42 46 46 41 38 40 42 44 45 46 46 46 46 45 44 45 48 50 53 60 66 71 77 82 89 93 97 94 90
32 36 34 34 39 37 35 34 37 39 42 44 45 46 48 48 48 50 55 61 65 69 72 80 82 83 87 92 96 97 94 88
Wind_Direction_500mb
216 215 220 226 236 223 215 220 224 240 234 232 243 251 254 254 253 259 254 246 258 253 249 253 250 245 243 246 248 248 245 242
196 202 200 214 226 219 212 215 226 233 229 232 236 237 240 246 253 253 254 250 254 255 250 246 241 241 241 243 243 244 238 238
145 163 166 176 197 180 188 201 211 225 226 226 231 234 242 249 253 255 254 256 248 239 237 235 234 237 235 232 233 237 247 243
111 116 129 131 131 133 140 152 176 199 235 223 227 228 241 255 278 297 281 289 271 257 232 239 230 232 251 243 228 224 219 222
88 96 98 100 104 105 103 107 106 132 123 95 66 62 71 72 73 69 61 68 64 75 86 91 95 164 228 242 239 241 266 268
73 82 90 92 93 95 96 93 94 94 86 80 79 80 82 82 81 82 83 88 93 98 96 95 93 80 43 360 339 331 326 323
70 80 85 90 91 93 93 93 94 90 87 85 86 85 84 85 85 87 84 85 84 81 80 75 63 41 25 18 12 5 355 347
77 83 85 87 93 91 90 91 89 88 86 85 85 84 85 86 85 85 85 86 85 81 73 64 59 48 35 20 12 5 1 1
83 87 89 91 90 92 90 88 88 88 87 87 87 87 86 83 81 80 78 77 77 69 58 52 54 53 52 43 37 28 23 17
85 86 88 89 90 90 88 88 86 84 85 85 86 88 87 83 81 78 76 73 66 62 56 49 46 45 45 36 32 29 25 20
91 91 88 85 88 89 85 82 80 81 82 81 80 80 78 78 75 73 69 66 60 55 50 48 46 43 41 34 30 26 22 17
86 84 86 85 85 83 82 78 81 82 82 80 77 74 73 74 71 67 65 63 60 56 53 47 43 40 34 30 24 20 14 8
83 82 81 81 79 80 78 80 81 81 80 80 79 77 75 70 69 65 60 56 54 50 46 43 38 33 27 21 16 8 5 360
84 83 80 77 75 78 80 80 79 76 73 72 71 70 68 63 61 59 54 49 45 39 34 31 26 20 14 10 6 1 358 354
84 81 79 75 72 73 75 72 71 73 75 74 71 67 63 59 54 48 44 39 35 30 25 18 14 8 4 0 358 354 351 349
82 82 83 82 80 79 78 79 78 77 74 70 65 60 56 51 48 42 37 30 25 22 18 12 10 4 1 357 355 352 348 345
86 85 85 85 83 82 78 75 73 73 71 67 62 58 53 48 43 37 32 26 24 20 16 14 9 1 359 355 353 350 347 345
86 86 87 88 88 85 80 76 73 73 71 66 61 55 48 41 34 29 26 23 19 17 11 10 4 360 355 351 349 346 343 343
92 93 91 91 89 86 81 74 71 68 65 58 49 41 35 29 25 21 18 16 13 9 3 360 356 353 348 344 340 338 339 338
89 88 88 86 87 84 75 68 66 62 56 48 39 31 25 22 19 16 11 8 4 358 356 353 350 345 341 339 338 337 335 333
Wind_Speed_850mb
50 56 48 29 40 48 66 60 45 49 51 61 53 58 67 75 77 78 91 87 83 90 72 73 72 81 82 81 78 72 66 60
42 42 37 30 35 46 50 47 41 40 44 52 59 59 63 67 73 77 85 83 86 73 56 65 73 75 65 59 57 45 39 33
46 45 38 29 25 27 29 28 25 28 41 44 49 51 55 60 66 72 65 59 54 44 49 60 58 50 42 30 28 31 35 28
69 62 45 42 36 29 25 19 20 19 24 29 31 27 26 24 26 26 24 21 22 21 24 23 20 12 11 13 14 17 18 12
92 81 70 64 53 45 39 32 24 13 12 14 17 19 21 24 25 25 21 19 16 15 15 10 4 6 12 15 16 16 19 21
92 91 82 76 68 64 60 54 49 48 44 50 48 47 45 44 42 42 41 41 38 34 32 28 21 16 9 9 11 14 17 19
96 96 98 92 86 82 81 79 75 75 72 65 59 56 55 51 50 47 44 41 36 33 29 25 22 17 16 17 18 18 18 18
101 102 98 93 86 90 81 76 79 77 69 62 56 55 52 48 47 45 44 40 38 34 32 33 32 26 23 23 24 26 27 28
97 93 91 88 82 77 74 75 72 70 64 58 53 52 48 46 48 45 42 40 38 37 37 36 41 38 32 31 30 30 31 35
93 88 85 87 80 76 77 75 71 69 64 57 52 50 46 45 44 45 42 42 44 44 40 44 47 47 44 38 40 41 43 45
86 84 80 77 73 75 77 76 77 69 66 59 56 54 53 50 49 47 44 44 42 43 45 44 45 47 50 49 46 46 49 51
82 88 86 78 75 81 76 78 67 60 57 56 55 54 51 48 47 45 42 40 42 42 43 45 48 52 52 52 54 56 56 58
81 81 75 72 70 75 77 64 56 53 53 54 54 52 49 47 49 49 47 48 49 48 48 49 48 47 47 49 53 56 59 63
74 74 71 68 66 69 64 53 51 50 54 53 51 51 51 50 50 49 50 51 52 51 51 50 50 50 51 53 58 61 63 66
65 68 68 64 62 62 55 49 47 51 54 53 52 52 51 52 53 52 54 53 52 52 51 51 52 56 60 64 68 69 69 72
59 59 60 56 56 53 49 46 48 53 55 55 54 55 54 54 54 53 51 49 49 52 52 53 55 58 61 61 70 75 75 78
54 53 54 53 56 54 49 46 47 51 52 51 50 49 47 45 44 44 44 44 47 48 52 54 50 57 67 70 76 80 81 82
46 46 46 47 51 50 45 42 43 47 46 44 43 43 44 44 43 43 44 47 48 52 55 60 63 67 74 80 85 86 90 93
41 41 42 42 46 46 41 38 40 42 44 45 46 46 46 46 45 44 45 48 50 53 60 66 71 77 82 89 93 97 94 90
32 36 34 34 39 37 35 34 37 39 42 44 45 46 48 48 48 50 55 61 65 69 72 80 82 83 87 92 96 97 94 88
Wind_Direction_850mb
216 215 220 226 236 223 215 220 224 240 234 232 243 251 254 254 253 259 254 246 258 253 249 253 250 245 243 246 248 248 245 242
196 202 200 214 226 219 212 215 226 233 229 232 236 237 240 246 253 253 254 250 254 255 250 246 241 241 241 243 243 244 238 238
145 163 166 176 197 180 188 201 211 225 226 226 231 234 242 249 253 255 254 256 248 239 237 235 234 237 235 232 233 237 247 243
111 116 129 131 131 133 140 152 176 199 235 223 227 228 241 255 278 297 281 289 271 257 232 239 230 232 251 243 228 224 219 222
88 96 98 100 104 105 103 107 106 132 123 95 66 62 71 72 73 69 61 68 64 75 86 91 95 164 228 242 239 241 266 268
73 82 90 92 93 95 96 93 94 94 86 80 79 80 82 82 81 82 83 88 93 98 96 95 93 80 43 360 339 331 326 323
70 80 85 90 91 93 93 93 94 90 87 85 86 85 84 85 85 87 84 85 84 81 80 75 63 41 25 18 12 5 355 347
77 83 85 87 93 91 90 91 89 88 86 85 85 84 85 86 85 85 85 86 85 81 73 64 59 48 35 20 12 5 1 1
83 87 89 91 90 92 90 88 88 88 87 87 87 87 86 83 81 80 78 77 77 69 58 52 54 53 52 43 37 28 23 17
85 86 88 89 90 90 88 88 86 84 85 85 86 88 87 83 81 78 76 73 66 62 56 49 46 45 45 36 32 29 25 20
91 91 88 85 88 89 85 82 80 81 82 81 80 80 78 78 75 73 69 66 60 55 50 48 46 43 41 34 30 26 22 17
86 84 86 85 85 83 82 78 81 82 82 80 77 74 73 74 71 67 65 63 60 56 53 47 43 40 34 30 24 20 14 8
83 82 81 81 79 80 78 80 81 81 80 80 79 77 75 70 69 65 60 56 54 50 46 43 38 33 27 21 16 8 5 360
84 83 80 77 75 78 80 80 79 76 73 72 71 70 68 63 61 59 54 49 45 39 34 31 26 20 14 10 6 1 358 354
84 81 79 75 72 73 75 72 71 73 75 74 71 67 63 59 54 48 44 39 35 30 25 18 14 8 4 0 358 354 351 349
82 82 83 82 80 79 78 79 78 77 74 70 65 60 56 51 48 42 37 30 25 22 18 12 10 4 1 357 355 352 348 345
86 85 85 85 83 82 78 75 73 73 71 67 62 58 53 48 43 37 32 26 24 20 16 14 9 1 359 355 353 350 347 345
86 86 87 88 88 85 80 76 73 73 71 66 61 55 48 41 34 29 26 23 19 17 11 10 4 360 355 351 349 346 343 343
92 93 91 91 89 86 81 74 71 68 65 58 49 41 35 29 25 21 18 16 13 9 3 360 356 353 348 344 340 338 339 338
89 88 88 86 87 84 75 68 66 62 56 48 39 31 25 22 19 16 11 8 4 358 356 353 350 345 341 339 338 337 335 333